Time,TemperatureF,DewpointF,PressureIn,WindDirection,WindDirectionDegrees,WindSpeedMPH,WindSpeedGustMPH,Humidity,HourlyPrecipIn,Conditions,Clouds,dailyrainin,SoftwareType,DateUTC
2013-01-31 00:00:00,57.0,57.0,29.48,SSW,202,7.0,12.0,100,0.01,,,0.00,Weather View 32 v70,2013-01-31 05:00:00,
2013-01-31 00:02:00,57.0,57.0,29.48,SW,225,5.0,12.0,100,0.00,,,0.00,Weather View 32 v70,2013-01-31 05:02:00,
2013-01-31 00:03:00,58.0,58.0,29.46,SSW,202,7.0,12.0,100,0.00,,,0.00,Weather View 32 v70,2013-01-31 05:03:00,
2013-01-31 00:08:00,58.0,58.0,29.46,South,180,8.0,18.0,100,0.00,,,0.00,Weather View 32 v70,2013-01-31 05:08:00,
2013-01-31 00:13:00,58.0,58.0,29.45,SSE,157,5.0,18.0,100,0.00,,,0.00,Weather View 32 v70,2013-01-31 05:13:00,
2013-01-31 00:18:00,58.0,58.0,29.45,SW,225,5.0,18.0,100,0.00,,,0.00,Weather View 32 v70,2013-01-31 05:18:00,
2013-01-31 00:23:00,58.0,58.0,29.44,SSW,202,6.0,18.0,100,0.00,,,0.00,Weather View 32 v70,2013-01-31 05:23:00,
2013-01-31 00:28:00,58.0,58.0,29.44,SSW,202,5.0,18.0,100,0.00,,,0.00,Weather View 32 v70,2013-01-31 05:28:00,
2013-01-31 00:33:00,58.0,58.0,29.43,South,180,3.0,18.0,100,0.00,,,0.00,Weather View 32 v70,2013-01-31 05:33:00,
2013-01-31 00:38:00,58.0,58.0,29.43,South,180,6.0,18.0,100,0.00,,,0.00,Weather View 32 v70,2013-01-31 05:38:00,
2013-01-31 00:43:00,58.0,58.0,29.41,SSW,202,10.0,18.0,100,0.00,,,0.00,Weather View 32 v70,2013-01-31 05:43:00,
2013-01-31 00:48:00,58.0,58.0,29.41,South,180,3.0,18.0,100,0.00,,,0.00,Weather View 32 v70,2013-01-31 05:48:00,
2013-01-31 00:53:00,59.0,59.0,29.41,SSE,157,6.0,18.0,100,0.00,,,0.00,Weather View 32 v70,2013-01-31 05:53:00,
2013-01-31 00:58:00,59.0,59.0,29.41,South,180,3.0,18.0,100,0.00,,,0.00,Weather View 32 v70,2013-01-31 05:58:00,
2013-01-31 01:03:00,59.0,59.0,29.40,South,180,10.0,18.0,100,0.00,,,0.00,Weather View 32 v70,2013-01-31 06:03:00,
2013-01-31 01:08:00,59.0,59.0,29.40,SSW,202,7.0,14.0,100,0.00,,,0.00,Weather View 32 v70,2013-01-31 06:08:00,
2013-01-31 01:13:00,59.0,59.0,29.39,South,180,7.0,14.0,100,0.00,,,0.00,Weather View 32 v70,2013-01-31 06:13:00,
2013-01-31 01:18:00,59.0,59.0,29.39,SSW,202,3.0,14.0,100,0.00,,,0.00,Weather View 32 v70,2013-01-31 06:18:00,
2013-01-31 01:23:00,59.0,59.0,29.37,SSW,202,7.0,14.0,100,0.00,,,0.00,Weather View 32 v70,2013-01-31 06:23:00,
2013-01-31 01:28:00,59.0,59.0,29.37,SSW,202,8.0,14.0,100,0.00,,,0.00,Weather View 32 v70,2013-01-31 06:28:00,
2013-01-31 01:33:00,59.0,59.0,29.37,South,180,4.0,18.0,100,0.00,,,0.00,Weather View 32 v70,2013-01-31 06:33:00,
2013-01-31 01:38:00,59.0,59.0,29.37,South,180,6.0,18.0,100,0.00,,,0.00,Weather View 32 v70,2013-01-31 06:38:00,
2013-01-31 01:43:00,59.0,58.7,29.36,SSW,202,6.0,18.0,99,0.00,,,0.00,Weather View 32 v70,2013-01-31 06:43:00,
2013-01-31 01:48:00,59.0,58.7,29.36,South,180,8.0,18.0,99,0.00,,,0.00,Weather View 32 v70,2013-01-31 06:48:00,
2013-01-31 01:53:00,59.0,58.7,29.35,South,180,6.0,18.0,99,0.00,,,0.00,Weather View 32 v70,2013-01-31 06:53:00,
2013-01-31 01:58:00,60.0,60.0,29.35,SSW,202,5.0,18.0,100,0.00,,,0.00,Weather View 32 v70,2013-01-31 06:58:00,
2013-01-31 02:03:00,60.0,59.7,29.34,South,180,10.0,18.0,99,0.00,,,0.00,Weather View 32 v70,2013-01-31 07:03:00,
2013-01-31 02:08:00,60.0,60.0,29.34,SSE,157,5.0,18.0,100,0.00,,,0.00,Weather View 32 v70,2013-01-31 07:08:00,
2013-01-31 02:13:00,60.0,60.0,29.32,South,180,5.0,18.0,100,0.00,,,0.00,Weather View 32 v70,2013-01-31 07:13:00,
2013-01-31 02:18:00,60.0,60.0,29.32,SSE,157,6.0,18.0,100,0.00,,,0.00,Weather View 32 v70,2013-01-31 07:18:00,
2013-01-31 02:23:00,60.0,60.0,29.32,SSW,202,5.0,18.0,100,0.00,,,0.00,Weather View 32 v70,2013-01-31 07:23:00,
2013-01-31 02:28:00,60.0,60.0,29.32,SSE,157,5.0,19.0,100,0.00,,,0.00,Weather View 32 v70,2013-01-31 07:28:00,
2013-01-31 02:33:00,60.0,60.0,29.30,SSW,202,9.0,19.0,100,0.00,,,0.00,Weather View 32 v70,2013-01-31 07:33:00,
2013-01-31 02:38:00,60.0,60.0,29.30,SSW,202,6.0,19.0,100,0.00,,,0.00,Weather View 32 v70,2013-01-31 07:38:00,
2013-01-31 02:43:00,60.0,60.0,29.29,South,180,4.0,19.0,100,0.00,,,0.00,Weather View 32 v70,2013-01-31 07:43:00,
2013-01-31 02:48:00,60.0,60.0,29.29,South,180,9.0,19.0,100,0.00,,,0.00,Weather View 32 v70,2013-01-31 07:48:00,
2013-01-31 02:53:00,60.0,60.0,29.27,NNW,337,6.0,19.0,100,0.00,,,0.00,Weather View 32 v70,2013-01-31 07:53:00,
2013-01-31 02:58:00,60.0,60.0,29.27,SSW,202,1.0,19.0,100,0.00,,,0.00,Weather View 32 v70,2013-01-31 07:58:00,
2013-01-31 03:03:00,60.0,60.0,29.26,SSE,157,11.0,19.0,100,0.00,,,0.00,Weather View 32 v70,2013-01-31 08:03:00,
2013-01-31 03:08:00,60.0,60.0,29.26,SSW,202,8.0,19.0,100,0.00,,,0.00,Weather View 32 v70,2013-01-31 08:08:00,
2013-01-31 03:13:00,60.0,60.0,29.24,SSW,202,10.0,19.0,100,0.00,,,0.00,Weather View 32 v70,2013-01-31 08:13:00,
2013-01-31 03:18:00,60.0,60.0,29.24,ESE,112,3.0,19.0,100,0.00,,,0.00,Weather View 32 v70,2013-01-31 08:18:00,
2013-01-31 03:23:00,60.0,60.0,29.23,SSW,202,6.0,19.0,100,0.00,,,0.00,Weather View 32 v70,2013-01-31 08:23:00,
2013-01-31 03:28:00,60.0,60.0,29.23,SSW,202,8.0,17.0,100,0.01,,,0.01,Weather View 32 v70,2013-01-31 08:28:00,
2013-01-31 03:33:00,60.0,60.0,29.21,South,180,5.0,25.0,100,0.01,,,0.01,Weather View 32 v70,2013-01-31 08:33:00,
2013-01-31 03:38:00,60.0,60.0,29.21,South,180,5.0,25.0,100,0.01,,,0.01,Weather View 32 v70,2013-01-31 08:38:00,
2013-01-31 03:43:00,60.0,60.0,29.20,South,180,6.0,25.0,100,0.01,,,0.01,Weather View 32 v70,2013-01-31 08:43:00,
2013-01-31 03:48:00,60.0,60.0,29.20,South,180,5.0,25.0,100,0.01,,,0.01,Weather View 32 v70,2013-01-31 08:48:00,
2013-01-31 03:53:00,60.0,60.0,29.19,South,180,6.0,25.0,100,0.01,,,0.01,Weather View 32 v70,2013-01-31 08:53:00,
2013-01-31 03:58:00,60.0,60.0,29.19,SSW,202,13.0,26.0,100,0.01,,,0.01,Weather View 32 v70,2013-01-31 08:58:00,
2013-01-31 04:03:00,60.0,59.7,29.18,SSE,157,19.0,26.0,99,0.01,,,0.01,Weather View 32 v70,2013-01-31 09:03:00,
2013-01-31 04:08:00,60.0,59.7,29.18,SW,225,11.0,26.0,99,0.01,,,0.01,Weather View 32 v70,2013-01-31 09:08:00,
2013-01-31 04:13:00,60.0,59.4,29.16,South,180,7.0,26.0,98,0.01,,,0.01,Weather View 32 v70,2013-01-31 09:13:00,
2013-01-31 04:18:00,60.0,59.4,29.16,SE,135,3.0,26.0,98,0.01,,,0.01,Weather View 32 v70,2013-01-31 09:18:00,
2013-01-31 04:23:00,60.0,59.4,29.15,SSW,202,6.0,26.0,98,0.01,,,0.01,Weather View 32 v70,2013-01-31 09:23:00,
2013-01-31 04:28:00,61.0,60.7,29.15,South,180,10.0,26.0,99,0.00,,,0.01,Weather View 32 v70,2013-01-31 09:28:00,
2013-01-31 04:33:00,60.0,59.7,29.14,SSW,202,7.0,26.0,99,0.00,,,0.01,Weather View 32 v70,2013-01-31 09:33:00,
2013-01-31 04:38:00,60.0,60.0,29.14,South,180,12.0,26.0,100,0.00,,,0.01,Weather View 32 v70,2013-01-31 09:38:00,
2013-01-31 04:43:00,60.0,60.0,29.14,South,180,11.0,26.0,100,0.00,,,0.01,Weather View 32 v70,2013-01-31 09:43:00,
2013-01-31 04:49:00,60.0,60.0,29.14,SSW,202,7.0,26.0,100,0.00,,,0.01,Weather View 32 v70,2013-01-31 09:49:00,
2013-01-31 04:54:00,60.0,60.0,29.13,South,180,8.0,30.0,100,0.00,,,0.01,Weather View 32 v70,2013-01-31 09:54:00,
2013-01-31 04:59:00,60.0,60.0,29.13,South,180,8.0,30.0,100,0.00,,,0.01,Weather View 32 v70,2013-01-31 09:59:00,
2013-01-31 05:04:00,59.0,59.0,29.13,SE,135,4.0,30.0,100,0.00,,,0.01,Weather View 32 v70,2013-01-31 10:04:00,
2013-01-31 05:09:00,59.0,59.0,29.13,South,180,3.0,30.0,100,0.00,,,0.01,Weather View 32 v70,2013-01-31 10:09:00,
2013-01-31 05:14:00,59.0,59.0,29.12,SSW,202,11.0,30.0,100,0.00,,,0.01,Weather View 32 v70,2013-01-31 10:14:00,
2013-01-31 05:19:00,59.0,59.0,29.12,WSW,247,5.0,30.0,100,0.01,,,0.02,Weather View 32 v70,2013-01-31 10:19:00,
2013-01-31 05:24:00,59.0,59.0,29.11,South,180,11.0,38.0,100,0.01,,,0.02,Weather View 32 v70,2013-01-31 10:24:00,
2013-01-31 05:29:00,59.0,59.0,29.11,SSW,202,15.0,38.0,100,0.01,,,0.03,Weather View 32 v70,2013-01-31 10:29:00,
2013-01-31 05:34:00,59.0,59.0,29.09,SSW,202,6.0,45.0,100,0.03,,,0.04,Weather View 32 v70,2013-01-31 10:34:00,
2013-01-31 05:39:00,59.0,59.0,29.09,SSE,157,9.0,45.0,100,0.04,,,0.06,Weather View 32 v70,2013-01-31 10:39:00,
2013-01-31 05:44:00,59.0,59.0,29.07,South,180,10.0,45.0,100,0.06,,,0.08,Weather View 32 v70,2013-01-31 10:44:00,
2013-01-31 05:49:00,59.0,59.0,29.07,South,180,6.0,45.0,100,0.07,,,0.09,Weather View 32 v70,2013-01-31 10:49:00,
2013-01-31 05:54:00,59.0,59.0,29.05,SSW,202,17.0,45.0,100,0.08,,,0.09,Weather View 32 v70,2013-01-31 10:54:00,
2013-01-31 05:59:00,59.0,59.0,29.05,SSW,202,3.0,45.0,100,0.09,,,0.10,Weather View 32 v70,2013-01-31 10:59:00,
2013-01-31 06:04:00,59.0,59.0,29.04,South,180,9.0,45.0,100,0.10,,,0.11,Weather View 32 v70,2013-01-31 11:04:00,
2013-01-31 06:09:00,59.0,59.0,29.04,South,180,8.0,45.0,100,0.12,,,0.13,Weather View 32 v70,2013-01-31 11:09:00,
2013-01-31 06:14:00,59.0,59.0,29.02,SSE,157,14.0,45.0,100,0.13,,,0.14,Weather View 32 v70,2013-01-31 11:14:00,
2013-01-31 06:19:00,59.0,59.0,29.02,South,180,7.0,45.0,100,0.13,,,0.15,Weather View 32 v70,2013-01-31 11:19:00,
2013-01-31 06:24:00,59.0,59.0,29.03,SSW,202,9.0,45.0,100,0.14,,,0.16,Weather View 32 v70,2013-01-31 11:24:00,
2013-01-31 06:29:00,59.0,59.0,29.03,SSW,202,10.0,45.0,100,0.14,,,0.16,Weather View 32 v70,2013-01-31 11:29:00,
2013-01-31 06:34:00,59.0,59.0,29.03,South,180,3.0,42.0,100,0.12,,,0.16,Weather View 32 v70,2013-01-31 11:34:00,
2013-01-31 06:39:00,59.0,59.0,29.03,SSE,157,11.0,42.0,100,0.12,,,0.17,Weather View 32 v70,2013-01-31 11:39:00,
2013-01-31 06:44:00,59.0,59.0,29.04,WSW,247,4.0,42.0,100,0.11,,,0.18,Weather View 32 v70,2013-01-31 11:44:00,
2013-01-31 06:49:00,59.0,59.0,29.04,South,180,13.0,42.0,100,0.10,,,0.18,Weather View 32 v70,2013-01-31 11:49:00,
2013-01-31 06:54:00,59.0,59.0,29.04,ENE,67,2.0,40.0,100,0.10,,,0.19,Weather View 32 v70,2013-01-31 11:54:00,
2013-01-31 06:59:00,59.0,59.0,29.04,South,180,6.0,40.0,100,0.09,,,0.19,Weather View 32 v70,2013-01-31 11:59:00,
2013-01-31 07:04:00,59.0,59.0,29.05,SSE,157,8.0,36.0,100,0.08,,,0.19,Weather View 32 v70,2013-01-31 12:04:00,
2013-01-31 07:09:00,59.0,59.0,29.05,SSW,202,9.0,36.0,100,0.06,,,0.19,Weather View 32 v70,2013-01-31 12:09:00,
2013-01-31 07:14:00,59.0,59.0,29.05,SSW,202,5.0,36.0,100,0.05,,,0.19,Weather View 32 v70,2013-01-31 12:14:00,
2013-01-31 07:19:00,59.0,59.0,29.05,SSE,157,6.0,36.0,100,0.04,,,0.19,Weather View 32 v70,2013-01-31 12:19:00,
2013-01-31 07:24:00,59.0,59.0,29.04,South,180,6.0,36.0,100,0.03,,,0.19,Weather View 32 v70,2013-01-31 12:24:00,
2013-01-31 07:29:00,59.0,59.0,29.04,SSE,157,5.0,31.0,100,0.03,,,0.19,Weather View 32 v70,2013-01-31 12:29:00,
2013-01-31 07:34:00,59.0,58.7,29.03,South,180,8.0,31.0,99,0.03,,,0.19,Weather View 32 v70,2013-01-31 12:34:00,
2013-01-31 07:39:00,58.0,57.4,29.03,South,180,10.0,31.0,98,0.02,,,0.19,Weather View 32 v70,2013-01-31 12:39:00,
2013-01-31 07:44:00,58.0,57.4,29.00,SSW,202,6.0,31.0,98,0.01,,,0.19,Weather View 32 v70,2013-01-31 12:44:00,
2013-01-31 07:49:00,58.0,57.4,29.00,SW,225,8.0,27.0,98,0.01,,,0.19,Weather View 32 v70,2013-01-31 12:49:00,
2013-01-31 07:54:00,58.0,57.4,29.00,South,180,8.0,21.0,98,0.00,,,0.19,Weather View 32 v70,2013-01-31 12:54:00,
2013-01-31 07:59:00,58.0,57.4,29.00,SSW,202,3.0,21.0,98,0.00,,,0.19,Weather View 32 v70,2013-01-31 12:59:00,
2013-01-31 08:04:00,58.0,57.4,29.00,SSW,202,6.0,21.0,98,0.01,,,0.20,Weather View 32 v70,2013-01-31 13:04:00,
2013-01-31 08:09:00,58.0,56.9,29.00,South,180,8.0,24.0,96,0.01,,,0.20,Weather View 32 v70,2013-01-31 13:09:00,
2013-01-31 08:14:00,58.0,56.0,28.99,SSW,202,6.0,24.0,93,0.01,,,0.20,Weather View 32 v70,2013-01-31 13:14:00,
2013-01-31 08:19:00,58.0,56.0,28.99,SSW,202,5.0,24.0,93,0.01,,,0.20,Weather View 32 v70,2013-01-31 13:19:00,
2013-01-31 08:24:00,58.0,55.7,28.98,South,180,10.0,24.0,92,0.01,,,0.20,Weather View 32 v70,2013-01-31 13:24:00,
2013-01-31 08:29:00,58.0,55.4,28.98,SW,225,3.0,35.0,91,0.01,,,0.20,Weather View 32 v70,2013-01-31 13:29:00,
2013-01-31 08:34:00,58.0,54.5,28.98,SSW,202,14.0,35.0,88,0.01,,,0.20,Weather View 32 v70,2013-01-31 13:34:00,
2013-01-31 08:39:00,58.0,54.5,28.98,SSE,157,4.0,35.0,88,0.01,,,0.20,Weather View 32 v70,2013-01-31 13:39:00,
2013-01-31 08:44:00,59.0,55.8,28.97,NW,315,3.0,35.0,89,0.01,,,0.20,Weather View 32 v70,2013-01-31 13:44:00,
2013-01-31 08:49:00,59.0,55.8,28.97,West,270,5.0,35.0,89,0.01,,,0.20,Weather View 32 v70,2013-01-31 13:49:00,
2013-01-31 08:54:00,59.0,55.8,28.99,South,180,11.0,35.0,89,0.01,,,0.20,Weather View 32 v70,2013-01-31 13:54:00,
2013-01-31 08:59:00,59.0,55.8,28.99,SSW,202,6.0,35.0,89,0.01,,,0.20,Weather View 32 v70,2013-01-31 13:59:00,
2013-01-31 09:04:00,59.0,55.1,28.97,South,180,6.0,35.0,87,0.00,,,0.20,Weather View 32 v70,2013-01-31 14:04:00,
2013-01-31 09:09:00,59.0,55.1,28.97,SSE,157,6.0,35.0,87,0.00,,,0.20,Weather View 32 v70,2013-01-31 14:09:00,
2013-01-31 09:14:00,58.0,53.5,28.97,SSW,202,10.0,35.0,85,0.00,,,0.20,Weather View 32 v70,2013-01-31 14:14:00,
2013-01-31 09:19:00,58.0,52.9,28.97,NW,315,3.0,35.0,83,0.00,,,0.20,Weather View 32 v70,2013-01-31 14:19:00,
2013-01-31 09:24:00,59.0,54.2,28.96,SSW,202,4.0,35.0,84,0.00,,,0.20,Weather View 32 v70,2013-01-31 14:24:00,
2013-01-31 09:29:00,57.0,46.9,28.96,ESE,112,7.0,32.0,69,0.00,,,0.20,Weather View 32 v70,2013-01-31 14:29:00,
2013-01-31 09:34:00,54.0,49.3,29.04,SSE,157,3.0,32.0,84,0.01,,,0.22,Weather View 32 v70,2013-01-31 14:34:00,
2013-01-31 09:39:00,51.0,48.2,29.04,NNW,337,4.0,32.0,90,0.04,,,0.24,Weather View 32 v70,2013-01-31 14:39:00,
2013-01-31 09:44:00,50.0,48.1,29.08,NNW,337,4.0,32.0,93,0.04,,,0.24,Weather View 32 v70,2013-01-31 14:44:00,
2013-01-31 09:49:00,48.0,46.4,29.08,SSW,202,7.0,32.0,94,0.05,,,0.25,Weather View 32 v70,2013-01-31 14:49:00,
2013-01-31 09:54:00,47.0,45.4,29.11,South,180,1.0,32.0,94,0.05,,,0.25,Weather View 32 v70,2013-01-31 14:54:00,
2013-01-31 09:59:00,46.0,44.4,29.11,SSW,202,4.0,32.0,94,0.05,,,0.25,Weather View 32 v70,2013-01-31 14:59:00,
2013-01-31 10:04:00,46.0,44.4,29.11,West,270,5.0,32.0,94,0.05,,,0.25,Weather View 32 v70,2013-01-31 15:04:00,
2013-01-31 10:09:00,45.0,42.8,29.11,West,270,1.0,32.0,92,0.05,,,0.25,Weather View 32 v70,2013-01-31 15:09:00,
2013-01-31 10:14:00,45.0,42.8,29.12,NW,315,3.0,32.0,92,0.05,,,0.25,Weather View 32 v70,2013-01-31 15:14:00,
2013-01-31 10:19:00,45.0,42.5,29.12,South,180,6.0,32.0,91,0.06,,,0.26,Weather View 32 v70,2013-01-31 15:19:00,
2013-01-31 10:24:00,45.0,42.2,29.12,SW,225,5.0,22.0,90,0.06,,,0.26,Weather View 32 v70,2013-01-31 15:24:00,
2013-01-31 10:29:00,44.0,41.5,29.12,SSE,157,2.0,19.0,91,0.06,,,0.26,Weather View 32 v70,2013-01-31 15:29:00,
2013-01-31 10:34:00,44.0,41.3,29.13,NW,315,3.0,19.0,90,0.05,,,0.26,Weather View 32 v70,2013-01-31 15:34:00,
2013-01-31 10:39:00,44.0,41.0,29.13,SSE,157,3.0,19.0,89,0.02,,,0.26,Weather View 32 v70,2013-01-31 15:39:00,
2013-01-31 10:44:00,44.0,40.4,29.13,North,360,2.0,19.0,87,0.02,,,0.26,Weather View 32 v70,2013-01-31 15:44:00,
2013-01-31 10:49:00,44.0,40.4,29.13,South,180,4.0,18.0,87,0.01,,,0.26,Weather View 32 v70,2013-01-31 15:49:00,
2013-01-31 10:54:00,45.0,39.5,29.15,South,180,4.0,18.0,81,0.01,,,0.26,Weather View 32 v70,2013-01-31 15:54:00,
2013-01-31 10:59:00,45.0,38.9,29.15,South,180,2.0,18.0,79,0.01,,,0.26,Weather View 32 v70,2013-01-31 15:59:00,
2013-01-31 11:04:00,45.0,36.9,29.15,SW,225,6.0,18.0,73,0.01,,,0.26,Weather View 32 v70,2013-01-31 16:04:00,
2013-01-31 11:09:00,46.0,37.1,29.15,NNW,337,7.0,18.0,71,0.01,,,0.26,Weather View 32 v70,2013-01-31 16:09:00,
2013-01-31 11:14:00,46.0,35.6,29.17,SSE,157,6.0,18.0,67,0.01,,,0.26,Weather View 32 v70,2013-01-31 16:14:00,
2013-01-31 11:19:00,46.0,35.6,29.17,ESE,112,3.0,18.0,67,0.00,,,0.26,Weather View 32 v70,2013-01-31 16:19:00,
2013-01-31 11:24:00,46.0,34.1,29.17,NE,45,2.0,18.0,63,0.00,,,0.26,Weather View 32 v70,2013-01-31 16:24:00,
2013-01-31 11:29:00,46.0,33.3,29.17,ESE,112,4.0,18.0,61,0.00,,,0.26,Weather View 32 v70,2013-01-31 16:29:00,
2013-01-31 11:34:00,46.0,32.0,29.19,ESE,112,3.0,22.0,58,0.00,,,0.26,Weather View 32 v70,2013-01-31 16:34:00,
2013-01-31 11:39:00,46.0,32.9,29.19,SSE,157,10.0,27.0,60,0.00,,,0.26,Weather View 32 v70,2013-01-31 16:39:00,
2013-01-31 11:44:00,46.0,32.0,29.19,NNW,337,3.0,27.0,58,0.00,,,0.26,Weather View 32 v70,2013-01-31 16:44:00,
2013-01-31 11:49:00,46.0,30.7,29.19,South,180,5.0,27.0,55,0.00,,,0.26,Weather View 32 v70,2013-01-31 16:49:00,
2013-01-31 11:54:00,46.0,29.8,29.19,SE,135,4.0,27.0,53,0.00,,,0.26,Weather View 32 v70,2013-01-31 16:54:00,
2013-01-31 11:59:00,47.0,30.3,29.19,NNW,337,3.0,27.0,52,0.00,,,0.26,Weather View 32 v70,2013-01-31 16:59:00,
2013-01-31 12:04:00,47.0,29.3,29.19,SSE,157,3.0,27.0,50,0.00,,,0.26,Weather View 32 v70,2013-01-31 17:04:00,
2013-01-31 12:09:00,47.0,29.3,29.19,East,90,2.0,27.0,50,0.00,,,0.26,Weather View 32 v70,2013-01-31 17:09:00,
2013-01-31 12:14:00,47.0,28.8,29.21,NW,315,3.0,27.0,49,0.00,,,0.26,Weather View 32 v70,2013-01-31 17:14:00,
2013-01-31 12:19:00,47.0,29.3,29.21,NW,315,4.0,27.0,50,0.00,,,0.26,Weather View 32 v70,2013-01-31 17:19:00,
2013-01-31 12:24:00,47.0,28.8,29.21,South,180,9.0,27.0,49,0.00,,,0.26,Weather View 32 v70,2013-01-31 17:24:00,
2013-01-31 12:29:00,47.0,28.3,29.21,ESE,112,5.0,27.0,48,0.00,,,0.26,Weather View 32 v70,2013-01-31 17:29:00,
2013-01-31 12:34:00,47.0,28.3,29.21,ENE,67,4.0,27.0,48,0.00,,,0.26,Weather View 32 v70,2013-01-31 17:34:00,
2013-01-31 12:39:00,46.0,27.4,29.21,WNW,292,10.0,27.0,48,0.00,,,0.26,Weather View 32 v70,2013-01-31 17:39:00,
2013-01-31 12:44:00,46.0,26.3,29.23,SW,225,6.0,27.0,46,0.00,,,0.26,Weather View 32 v70,2013-01-31 17:44:00,
2013-01-31 12:49:00,46.0,26.9,29.23,NW,315,5.0,27.0,47,0.00,,,0.26,Weather View 32 v70,2013-01-31 17:49:00,
2013-01-31 12:54:00,46.0,27.4,29.22,NW,315,13.0,27.0,48,0.00,,,0.26,Weather View 32 v70,2013-01-31 17:54:00,
2013-01-31 12:59:00,46.0,27.4,29.22,SSE,157,4.0,25.0,48,0.00,,,0.26,Weather View 32 v70,2013-01-31 17:59:00,
2013-01-31 13:05:00,46.0,25.8,29.22,NW,315,10.0,25.0,45,0.00,,,0.26,Weather View 32 v70,2013-01-31 18:05:00,
2013-01-31 13:10:00,46.0,25.8,29.22,SE,135,3.0,25.0,45,0.00,,,0.26,Weather View 32 v70,2013-01-31 18:10:00,
2013-01-31 13:15:00,46.0,25.8,29.23,NE,45,3.0,25.0,45,0.00,,,0.26,Weather View 32 v70,2013-01-31 18:15:00,
2013-01-31 13:20:00,46.0,24.7,29.23,SE,135,9.0,25.0,43,0.00,,,0.26,Weather View 32 v70,2013-01-31 18:20:00,
2013-01-31 13:25:00,46.0,24.7,29.24,ESE,112,5.0,25.0,43,0.00,,,0.26,Weather View 32 v70,2013-01-31 18:25:00,
2013-01-31 13:30:00,45.0,23.8,29.24,ESE,112,4.0,26.0,43,0.00,,,0.26,Weather View 32 v70,2013-01-31 18:30:00,
2013-01-31 13:35:00,45.0,24.4,29.25,North,360,7.0,26.0,44,0.00,,,0.26,Weather View 32 v70,2013-01-31 18:35:00,
2013-01-31 13:40:00,45.0,24.9,29.25,NNW,337,3.0,26.0,45,0.00,,,0.26,Weather View 32 v70,2013-01-31 18:40:00,
2013-01-31 13:45:00,45.0,23.8,29.26,NW,315,10.0,26.0,43,0.00,,,0.26,Weather View 32 v70,2013-01-31 18:45:00,
2013-01-31 13:50:00,45.0,20.9,29.26,NW,315,5.0,26.0,38,0.00,,,0.26,Weather View 32 v70,2013-01-31 18:50:00,
2013-01-31 13:55:00,45.0,20.9,29.27,SSW,202,9.0,26.0,38,0.00,,,0.26,Weather View 32 v70,2013-01-31 18:55:00,
2013-01-31 14:00:00,45.0,20.9,29.27,West,270,3.0,26.0,38,0.00,,,0.26,Weather View 32 v70,2013-01-31 19:00:00,
2013-01-31 14:05:00,44.0,20.0,29.27,NW,315,14.0,27.0,38,0.00,,,0.26,Weather View 32 v70,2013-01-31 19:05:00,
2013-01-31 14:10:00,44.0,21.2,29.27,SSE,157,5.0,27.0,40,0.00,,,0.26,Weather View 32 v70,2013-01-31 19:10:00,
2013-01-31 14:15:00,44.0,21.2,29.29,SSW,202,5.0,27.0,40,0.00,,,0.26,Weather View 32 v70,2013-01-31 19:15:00,
2013-01-31 14:20:00,44.0,22.3,29.29,SE,135,2.0,27.0,42,0.00,,,0.26,Weather View 32 v70,2013-01-31 19:20:00,
2013-01-31 14:25:00,43.0,19.7,29.29,WNW,292,10.0,29.0,39,0.00,,,0.26,Weather View 32 v70,2013-01-31 19:25:00,
2013-01-31 14:30:00,43.0,19.7,29.29,ESE,112,4.0,29.0,39,0.00,,,0.26,Weather View 32 v70,2013-01-31 19:30:00,
2013-01-31 14:35:00,43.0,18.5,29.29,NW,315,4.0,29.0,37,0.00,,,0.26,Weather View 32 v70,2013-01-31 19:35:00,
2013-01-31 14:40:00,43.0,19.7,29.29,SSW,202,5.0,29.0,39,0.00,,,0.26,Weather View 32 v70,2013-01-31 19:40:00,
2013-01-31 14:45:00,43.0,18.5,29.30,West,270,9.0,29.0,37,0.00,,,0.26,Weather View 32 v70,2013-01-31 19:45:00,
2013-01-31 14:50:00,43.0,18.5,29.30,NNW,337,4.0,29.0,37,0.00,,,0.26,Weather View 32 v70,2013-01-31 19:50:00,
2013-01-31 14:55:00,43.0,18.5,29.32,SSW,202,5.0,29.0,37,0.00,,,0.26,Weather View 32 v70,2013-01-31 19:55:00,
2013-01-31 15:00:00,43.0,19.1,29.32,SW,225,7.0,29.0,38,0.00,,,0.26,Weather View 32 v70,2013-01-31 20:00:00,
2013-01-31 15:05:00,43.0,19.7,29.33,WNW,292,5.0,29.0,39,-0.06,,,0.26,Weather View 32 v70,2013-01-31 20:05:00,
2013-01-31 15:10:00,42.0,20.0,29.33,SSW,202,2.0,29.0,41,0.00,,,0.26,Weather View 32 v70,2013-01-31 20:10:00,
2013-01-31 15:15:00,42.0,20.5,29.34,South,180,0.0,29.0,42,0.00,,,0.26,Weather View 32 v70,2013-01-31 20:15:00,
2013-01-31 15:20:00,42.0,20.0,29.34,NNW,337,14.0,29.0,41,0.00,,,0.26,Weather View 32 v70,2013-01-31 20:20:00,
2013-01-31 15:25:00,41.0,18.5,29.35,WNW,292,13.0,28.0,40,0.00,,,0.26,Weather View 32 v70,2013-01-31 20:25:00,
2013-01-31 15:30:00,41.0,17.9,29.35,WSW,247,7.0,28.0,39,0.00,,,0.26,Weather View 32 v70,2013-01-31 20:30:00,
2013-01-31 15:35:00,41.0,19.1,29.36,ESE,112,2.0,28.0,41,0.00,,,0.26,Weather View 32 v70,2013-01-31 20:35:00,
2013-01-31 15:40:00,41.0,18.5,29.36,East,90,0.0,20.0,40,0.00,,,0.26,Weather View 32 v70,2013-01-31 20:40:00,
2013-01-31 15:45:00,41.0,18.5,29.37,North,360,1.0,20.0,40,0.00,,,0.26,Weather View 32 v70,2013-01-31 20:45:00,
2013-01-31 15:50:00,41.0,18.5,29.37,WNW,292,4.0,20.0,40,0.00,,,0.26,Weather View 32 v70,2013-01-31 20:50:00,
2013-01-31 15:55:00,41.0,18.5,29.38,SSE,157,1.0,20.0,40,0.00,,,0.26,Weather View 32 v70,2013-01-31 20:55:00,
2013-01-31 16:00:00,41.0,19.1,29.38,NW,315,3.0,19.0,41,0.00,,,0.26,Weather View 32 v70,2013-01-31 21:00:00,
2013-01-31 16:05:00,40.0,18.2,29.39,NW,315,8.0,21.0,41,0.00,,,0.26,Weather View 32 v70,2013-01-31 21:05:00,
2013-01-31 16:10:00,40.0,18.7,29.39,NW,315,4.0,21.0,42,0.00,,,0.26,Weather View 32 v70,2013-01-31 21:10:00,
2013-01-31 16:15:00,40.0,19.3,29.39,SSE,157,1.0,21.0,43,0.00,,,0.26,Weather View 32 v70,2013-01-31 21:15:00,
2013-01-31 16:20:00,39.0,18.9,29.39,WSW,247,4.0,21.0,44,0.00,,,0.26,Weather View 32 v70,2013-01-31 21:20:00,
2013-01-31 16:25:00,39.0,18.9,29.40,NW,315,6.0,29.0,44,0.00,,,0.26,Weather View 32 v70,2013-01-31 21:25:00,
2013-01-31 16:30:00,39.0,17.8,29.40,ESE,112,3.0,29.0,42,0.00,,,0.26,Weather View 32 v70,2013-01-31 21:30:00,
2013-01-31 16:35:00,39.0,18.9,29.41,South,180,1.0,29.0,44,0.00,,,0.26,Weather View 32 v70,2013-01-31 21:35:00,
2013-01-31 16:40:00,39.0,18.4,29.41,South,180,10.0,29.0,43,0.00,,,0.26,Weather View 32 v70,2013-01-31 21:40:00,
2013-01-31 16:45:00,39.0,17.8,29.41,NW,315,3.0,29.0,42,0.00,,,0.26,Weather View 32 v70,2013-01-31 21:45:00,
2013-01-31 16:50:00,39.0,17.8,29.41,WNW,292,1.0,29.0,42,0.00,,,0.26,Weather View 32 v70,2013-01-31 21:50:00,
2013-01-31 16:55:00,39.0,18.9,29.41,SW,225,2.0,29.0,44,0.00,,,0.26,Weather View 32 v70,2013-01-31 21:55:00,
2013-01-31 17:00:00,39.0,19.4,29.41,North,360,2.0,29.0,45,0.00,,,0.26,Weather View 32 v70,2013-01-31 22:00:00,
2013-01-31 17:05:00,38.0,18.0,29.42,SW,225,2.0,29.0,44,0.00,,,0.26,Weather View 32 v70,2013-01-31 22:05:00,
2013-01-31 17:10:00,38.0,18.0,29.42,SE,135,9.0,29.0,44,0.00,,,0.26,Weather View 32 v70,2013-01-31 22:10:00,
2013-01-31 17:15:00,38.0,19.0,29.43,WNW,292,5.0,29.0,46,0.00,,,0.26,Weather View 32 v70,2013-01-31 22:15:00,
2013-01-31 17:20:00,38.0,19.0,29.43,South,180,3.0,29.0,46,0.00,,,0.26,Weather View 32 v70,2013-01-31 22:20:00,
2013-01-31 17:25:00,38.0,19.5,29.44,West,270,7.0,20.0,47,0.00,,,0.26,Weather View 32 v70,2013-01-31 22:25:00,
2013-01-31 17:30:00,38.0,19.5,29.44,ESE,112,1.0,20.0,47,0.00,,,0.26,Weather View 32 v70,2013-01-31 22:30:00,
2013-01-31 17:35:00,38.0,20.0,29.45,NNE,22,1.0,20.0,48,0.00,,,0.26,Weather View 32 v70,2013-01-31 22:35:00,
2013-01-31 17:40:00,37.0,19.1,29.45,NW,315,1.0,20.0,48,0.00,,,0.26,Weather View 32 v70,2013-01-31 22:40:00,
2013-01-31 17:45:00,37.0,19.1,29.46,South,180,10.0,20.0,48,0.00,,,0.26,Weather View 32 v70,2013-01-31 22:45:00,
2013-01-31 17:50:00,37.0,19.6,29.46,North,360,2.0,20.0,49,0.00,,,0.26,Weather View 32 v70,2013-01-31 22:50:00,
2013-01-31 17:55:00,37.0,19.6,29.47,ENE,67,2.0,20.0,49,0.00,,,0.26,Weather View 32 v70,2013-01-31 22:55:00,
2013-01-31 18:00:00,36.0,18.7,29.47,NNW,337,9.0,20.0,49,0.00,,,0.26,Weather View 32 v70,2013-01-31 23:00:00,
2013-01-31 18:05:00,36.0,18.2,29.47,SSW,202,5.0,20.0,48,0.00,,,0.26,Weather View 32 v70,2013-01-31 23:05:00,
2013-01-31 18:10:00,36.0,18.2,29.47,SSE,157,3.0,20.0,48,0.00,,,0.26,Weather View 32 v70,2013-01-31 23:10:00,
2013-01-31 18:15:00,36.0,18.7,29.47,South,180,6.0,20.0,49,0.00,,,0.26,Weather View 32 v70,2013-01-31 23:15:00,
2013-01-31 18:20:00,36.0,18.7,29.47,SE,135,4.0,20.0,49,0.00,,,0.26,Weather View 32 v70,2013-01-31 23:20:00,
2013-01-31 18:25:00,36.0,19.1,29.48,SSW,202,8.0,20.0,50,0.00,,,0.26,Weather View 32 v70,2013-01-31 23:25:00,
2013-01-31 18:30:00,36.0,19.6,29.48,South,180,5.0,20.0,51,0.00,,,0.26,Weather View 32 v70,2013-01-31 23:30:00,
2013-01-31 18:35:00,35.0,18.7,29.49,SSE,157,3.0,20.0,51,0.00,,,0.26,Weather View 32 v70,2013-01-31 23:35:00,
2013-01-31 18:40:00,35.0,18.7,29.49,SSW,202,3.0,20.0,51,0.00,,,0.26,Weather View 32 v70,2013-01-31 23:40:00,
2013-01-31 18:45:00,35.0,19.1,29.50,SSW,202,0.0,19.0,52,0.00,,,0.26,Weather View 32 v70,2013-01-31 23:45:00,
2013-01-31 18:50:00,35.0,19.6,29.50,NW,315,5.0,19.0,53,0.00,,,0.26,Weather View 32 v70,2013-01-31 23:50:00,
2013-01-31 18:55:00,35.0,20.0,29.50,NNW,337,3.0,19.0,54,0.00,,,0.26,Weather View 32 v70,2013-01-31 23:55:00,
2013-01-31 19:00:00,35.0,20.0,29.50,SSE,157,3.0,19.0,54,0.00,,,0.26,Weather View 32 v70,2013-02-01 00:00:00,
2013-01-31 19:05:00,35.0,20.9,29.51,NNE,22,1.0,19.0,56,0.00,,,0.26,Weather View 32 v70,2013-02-01 00:05:00,
2013-01-31 19:10:00,34.0,19.9,29.51,East,90,3.0,19.0,56,0.00,,,0.26,Weather View 32 v70,2013-02-01 00:10:00,
2013-01-31 19:15:00,34.0,19.9,29.51,South,180,5.0,14.0,56,0.00,,,0.26,Weather View 32 v70,2013-02-01 00:15:00,
2013-01-31 19:20:00,34.0,19.1,29.51,ESE,112,0.0,11.0,54,0.00,,,0.26,Weather View 32 v70,2013-02-01 00:20:00,
2013-01-31 19:25:00,34.0,18.6,29.52,NW,315,5.0,11.0,53,0.00,,,0.26,Weather View 32 v70,2013-02-01 00:25:00,
2013-01-31 19:30:00,34.0,17.8,29.52,West,270,4.0,15.0,51,0.00,,,0.26,Weather View 32 v70,2013-02-01 00:30:00,
2013-01-31 19:35:00,34.0,17.8,29.53,SSE,157,4.0,15.0,51,0.00,,,0.26,Weather View 32 v70,2013-02-01 00:35:00,
2013-01-31 19:40:00,34.0,17.8,29.53,South,180,3.0,19.0,51,0.00,,,0.26,Weather View 32 v70,2013-02-01 00:40:00,
2013-01-31 19:45:00,34.0,17.8,29.53,South,180,2.0,19.0,51,0.00,,,0.26,Weather View 32 v70,2013-02-01 00:45:00,
2013-01-31 19:50:00,34.0,18.6,29.53,ESE,112,1.0,19.0,53,0.00,,,0.26,Weather View 32 v70,2013-02-01 00:50:00,
2013-01-31 19:55:00,34.0,19.1,29.54,ENE,67,2.0,19.0,54,0.00,,,0.26,Weather View 32 v70,2013-02-01 00:55:00,
2013-01-31 20:00:00,34.0,19.9,29.54,WNW,292,3.0,19.0,56,0.00,,,0.26,Weather View 32 v70,2013-02-01 01:00:00,
2013-01-31 20:05:00,34.0,19.9,29.54,SSE,157,3.0,19.0,56,0.00,,,0.26,Weather View 32 v70,2013-02-01 01:05:00,
2013-01-31 20:10:00,33.0,19.0,29.54,SE,135,4.0,19.0,56,0.00,,,0.26,Weather View 32 v70,2013-02-01 01:10:00,
2013-01-31 20:15:00,33.0,19.0,29.55,SSW,202,0.0,19.0,56,0.00,,,0.26,Weather View 32 v70,2013-02-01 01:15:00,
2013-01-31 20:20:00,33.0,19.4,29.55,North,360,1.0,19.0,57,0.00,,,0.26,Weather View 32 v70,2013-02-01 01:20:00,
2013-01-31 20:25:00,33.0,19.4,29.55,ESE,112,2.0,19.0,57,0.00,,,0.26,Weather View 32 v70,2013-02-01 01:25:00,
2013-01-31 20:30:00,33.0,19.0,29.55,NNW,337,6.0,19.0,56,0.00,,,0.26,Weather View 32 v70,2013-02-01 01:30:00,
2013-01-31 20:35:00,33.0,18.6,29.56,SSE,157,2.0,19.0,55,0.00,,,0.26,Weather View 32 v70,2013-02-01 01:35:00,
2013-01-31 20:40:00,32.0,17.6,29.56,NW,315,10.0,15.0,55,0.00,,,0.26,Weather View 32 v70,2013-02-01 01:40:00,
2013-01-31 20:45:00,32.0,17.6,29.57,SSE,157,4.0,15.0,55,0.00,,,0.26,Weather View 32 v70,2013-02-01 01:45:00,
2013-01-31 20:50:00,32.0,17.2,29.57,SSE,157,4.0,15.0,54,0.00,,,0.26,Weather View 32 v70,2013-02-01 01:50:00,
2013-01-31 20:55:00,32.0,16.8,29.57,ESE,112,3.0,15.0,53,0.00,,,0.26,Weather View 32 v70,2013-02-01 01:55:00,
2013-01-31 21:00:00,32.0,16.8,29.57,South,180,2.0,15.0,53,0.00,,,0.26,Weather View 32 v70,2013-02-01 02:00:00,
2013-01-31 21:05:00,32.0,16.8,29.56,SSE,157,1.0,15.0,53,0.00,,,0.26,Weather View 32 v70,2013-02-01 02:05:00,
2013-01-31 21:10:00,32.0,17.6,29.56,SSW,202,4.0,14.0,55,0.00,,,0.26,Weather View 32 v70,2013-02-01 02:10:00,
2013-01-31 21:15:00,32.0,18.1,29.59,WNW,292,2.0,14.0,56,0.00,,,0.26,Weather View 32 v70,2013-02-01 02:15:00,
2013-01-31 21:20:00,31.0,17.5,29.59,SSE,157,4.0,14.0,57,0.00,,,0.26,Weather View 32 v70,2013-02-01 02:20:00,
2013-01-31 21:25:00,31.0,17.5,29.59,SSW,202,1.0,14.0,57,0.00,,,0.26,Weather View 32 v70,2013-02-01 02:25:00,
2013-01-31 21:30:00,31.0,17.5,29.59,SSW,202,4.0,16.0,57,0.00,,,0.26,Weather View 32 v70,2013-02-01 02:30:00,
2013-01-31 21:35:00,31.0,17.9,29.59,WNW,292,5.0,16.0,58,0.00,,,0.26,Weather View 32 v70,2013-02-01 02:35:00,
2013-01-31 21:40:00,31.0,18.3,29.59,South,180,7.0,16.0,59,0.00,,,0.26,Weather View 32 v70,2013-02-01 02:40:00,
2013-01-31 21:45:00,31.0,17.9,29.60,South,180,2.0,19.0,58,0.00,,,0.26,Weather View 32 v70,2013-02-01 02:45:00,
2013-01-31 21:50:00,31.0,17.5,29.60,WNW,292,8.0,27.0,57,0.00,,,0.26,Weather View 32 v70,2013-02-01 02:50:00,
2013-01-31 21:55:00,31.0,17.5,29.61,NNW,337,4.0,27.0,57,0.00,,,0.26,Weather View 32 v70,2013-02-01 02:55:00,
2013-01-31 22:01:00,31.0,17.9,29.61,South,180,3.0,27.0,58,0.00,,,0.26,Weather View 32 v70,2013-02-01 03:01:00,
2013-01-31 22:06:00,31.0,17.9,29.61,NW,315,7.0,27.0,58,0.00,,,0.26,Weather View 32 v70,2013-02-01 03:06:00,
2013-01-31 22:11:00,30.0,16.6,29.61,SSE,157,6.0,27.0,57,0.00,,,0.26,Weather View 32 v70,2013-02-01 03:11:00,
2013-01-31 22:16:00,30.0,16.6,29.61,South,180,3.0,27.0,57,0.00,,,0.26,Weather View 32 v70,2013-02-01 03:16:00,
2013-01-31 22:21:00,30.0,16.6,29.61,SSW,202,3.0,27.0,57,0.00,,,0.26,Weather View 32 v70,2013-02-01 03:21:00,
2013-01-31 22:26:00,30.0,16.6,29.61,SSW,202,3.0,27.0,57,0.00,,,0.26,Weather View 32 v70,2013-02-01 03:26:00,
2013-01-31 22:31:00,30.0,16.2,29.61,SW,225,2.0,27.0,56,0.00,,,0.26,Weather View 32 v70,2013-02-01 03:31:00,
2013-01-31 22:36:00,30.0,15.8,29.61,SSW,202,5.0,27.0,55,0.00,,,0.26,Weather View 32 v70,2013-02-01 03:36:00,
2013-01-31 22:41:00,30.0,15.8,29.61,ESE,112,3.0,27.0,55,0.00,,,0.26,Weather View 32 v70,2013-02-01 03:41:00,
2013-01-31 22:46:00,30.0,15.8,29.62,NW,315,10.0,27.0,55,0.00,,,0.26,Weather View 32 v70,2013-02-01 03:46:00,
2013-01-31 22:51:00,30.0,15.8,29.62,South,180,2.0,18.0,55,0.00,,,0.26,Weather View 32 v70,2013-02-01 03:51:00,
2013-01-31 22:56:00,29.0,14.8,29.62,SW,225,3.0,18.0,55,0.00,,,0.26,Weather View 32 v70,2013-02-01 03:56:00,
2013-01-31 23:01:00,29.0,14.8,29.62,South,180,5.0,18.0,55,0.00,,,0.26,Weather View 32 v70,2013-02-01 04:01:00,
2013-01-31 23:06:00,29.0,15.7,29.62,NW,315,6.0,18.0,57,0.00,,,0.26,Weather View 32 v70,2013-02-01 04:06:00,
2013-01-31 23:11:00,29.0,15.7,29.62,NNW,337,0.0,18.0,57,0.00,,,0.26,Weather View 32 v70,2013-02-01 04:11:00,
2013-01-31 23:16:00,29.0,15.3,29.63,NW,315,4.0,13.0,56,0.00,,,0.26,Weather View 32 v70,2013-02-01 04:16:00,
2013-01-31 23:21:00,29.0,15.7,29.63,East,90,4.0,13.0,57,0.00,,,0.26,Weather View 32 v70,2013-02-01 04:21:00,
2013-01-31 23:26:00,29.0,15.7,29.62,NW,315,3.0,13.0,57,0.00,,,0.26,Weather View 32 v70,2013-02-01 04:26:00,
2013-01-31 23:31:00,29.0,15.7,29.62,NW,315,6.0,13.0,57,0.00,,,0.26,Weather View 32 v70,2013-02-01 04:31:00,
2013-01-31 23:36:00,29.0,15.7,29.63,SSE,157,2.0,13.0,57,0.00,,,0.26,Weather View 32 v70,2013-02-01 04:36:00,
2013-01-31 23:41:00,29.0,15.7,29.63,ESE,112,2.0,13.0,57,0.00,,,0.26,Weather View 32 v70,2013-02-01 04:41:00,
2013-01-31 23:46:00,29.0,16.1,29.63,WSW,247,2.0,10.0,58,0.00,,,0.26,Weather View 32 v70,2013-02-01 04:46:00,
2013-01-31 23:51:00,29.0,16.1,29.63,NE,45,1.0,10.0,58,0.00,,,0.26,Weather View 32 v70,2013-02-01 04:51:00,
2013-01-31 23:56:00,29.0,16.1,29.64,NW,315,1.0,10.0,58,0.00,,,0.26,Weather View 32 v70,2013-02-01 04:56:00,